| time (UTC) | temp C | wind direction | speed KPH | gust KPH | rain 1hr cm | rain 24hr cm | rain mn cm | humidity % | barometer mb |
| 20260504151018 | 18 | 180 | 11.3 | 27.4 | 0.00 | 0.00 | 0.00 | 62 | 1008.5 |
| 20260504141018 | 16 | 180 | 8.0 | 17.7 | 0.00 | 0.00 | 0.00 | 63 | 1008.3 |
| 20260504081019 | 11 | 158 | 8.0 | 22.5 | 0.00 | 0.00 | 0.00 | 67 | 1010.1 |
| 20260504050018 | 11 | 180 | 9.7 | 20.9 | 0.00 | 0.00 | 0.00 | 63 | 1012.1 |
| 20260504045019 | 11 | 180 | 9.7 | 19.3 | 0.00 | 0.00 | 0.00 | 63 | 1012.2 |
| 20260504044019 | 11 | 180 | 11.3 | 19.3 | 0.00 | 0.00 | 0.00 | 64 | 1012.2 |
| 20260504043019 | 11 | 180 | 11.3 | 25.7 | 0.00 | 0.00 | 0.00 | 63 | 1012.3 |
| 20260504042039 | 11 | 158 | 9.7 | 22.5 | 0.00 | 0.00 | 0.00 | 64 | 1012.4 |
| 20260504041019 | 11 | 180 | 11.3 | 20.9 | 0.00 | 0.00 | 0.00 | 63 | 1012.4 |
| 20260504040019 | 11 | 180 | 11.3 | 22.5 | 0.00 | 0.00 | 0.00 | 62 | 1012.4 |
| 20260504035018 | 11 | 158 | 8.0 | 17.7 | 0.00 | 0.00 | 0.00 | 63 | 1012.6 |
| 20260504034018 | 11 | 180 | 11.3 | 22.5 | 0.00 | 0.00 | 0.00 | 63 | 1012.6 |
| 20260504033019 | 11 | 180 | 9.7 | 19.3 | 0.00 | 0.00 | 0.00 | 64 | 1012.8 |
| 20260504032018 | 11 | 180 | 9.7 | 19.3 | 0.00 | 0.00 | 0.00 | 65 | 1012.8 |
| 20260504031018 | 11 | 180 | 11.3 | 24.1 | 0.00 | 0.00 | 0.00 | 65 | 1012.9 |
| 20260504030018 | 11 | 180 | 11.3 | 19.3 | 0.00 | 0.00 | 0.00 | 67 | 1012.8 |
| 20260504025018 | 11 | 158 | 8.0 | 22.5 | 0.00 | 0.00 | 0.00 | 68 | 1013.0 |
| 20260504024018 | 10 | 180 | 11.3 | 19.3 | 0.00 | 0.00 | 0.00 | 69 | 1013.0 |
| 20260504023018 | 10 | 180 | 6.4 | 16.1 | 0.00 | 0.00 | 0.00 | 71 | 1012.9 |
| 20260504022018 | 10 | 180 | 8.0 | 16.1 | 0.00 | 0.00 | 0.00 | 73 | 1013.0 |
| 20260504021018 | 10 | 158 | 9.7 | 19.3 | 0.00 | 0.00 | 0.00 | 74 | 1013.0 |
| 20260504020020 | 10 | 158 | 9.7 | 17.7 | 0.00 | 0.00 | 0.00 | 75 | 1013.0 |
| 20260504015021 | 10 | 180 | 11.3 | 24.1 | 0.00 | 0.00 | 0.00 | 75 | 1013.2 |
| 20260504014020 | 9 | 158 | 8.0 | 19.3 | 0.00 | 0.00 | 0.00 | 76 | 1013.1 |
| 20260504013020 | 9 | 158 | 8.0 | 17.7 | 0.00 | 0.00 | 0.00 | 76 | 1013.1 |
| 20260504012018 | 9 | 158 | 8.0 | 16.1 | 0.00 | 0.00 | 0.00 | 76 | 1013.1 |
| 20260504011040 | 10 | 158 | 6.4 | 12.9 | 0.00 | 0.00 | 0.00 | 75 | 1013.1 |
| 20260504010040 | 10 | 158 | 4.8 | 11.3 | 0.00 | 0.00 | 0.00 | 75 | 1013.2 |
| 20260504005020 | 10 | 180 | 4.8 | 12.9 | 0.00 | 0.00 | 0.00 | 74 | 1013.2 |
| 20260504004040 | 10 | 158 | 4.8 | 12.9 | 0.00 | 0.00 | 0.00 | 73 | 1013.3 |
| 20260504003018 | 10 | 158 | 8.0 | 14.5 | 0.00 | 0.00 | 0.00 | 72 | 1013.2 |
| 20260504002020 | 10 | 158 | 6.4 | 14.5 | 0.00 | 0.00 | 0.00 | 72 | 1013.2 |
| 20260504001020 | 10 | 180 | 4.8 | 8.0 | 0.00 | 0.00 | 0.00 | 71 | 1013.2 |
| 20260504000020 | 10 | 180 | 6.4 | 9.7 | 0.00 | 0.00 | 0.00 | 71 | 1013.1 |
| 20260503235020 | 11 | 180 | 6.4 | 12.9 | 0.00 | 0.00 | 0.00 | 70 | 1013.2 |
| 20260503234020 | 11 | 135 | 4.8 | 11.3 | 0.00 | 0.00 | 0.00 | 70 | 1013.4 |
| 20260503233519 | 11 | 180 | 4.8 | 11.3 | 0.00 | 0.00 | 0.00 | 69 | 1013.4 |
| 20260503232519 | 11 | 180 | 4.8 | 11.3 | 0.00 | 0.00 | 0.00 | 69 | 1013.5 |
| 20260503231519 | 11 | 180 | 9.7 | 16.1 | 0.00 | 0.00 | 0.00 | 69 | 1013.6 |
| 20260503230519 | 11 | 203 | 8.0 | 19.3 | 0.00 | 0.00 | 0.00 | 68 | 1013.7 |
| 20260503225519 | 11 | 270 | 9.7 | 20.9 | 0.00 | 0.00 | 0.00 | 67 | 1014.1 |
| 20260503224518 | 11 | 203 | 8.0 | 22.5 | 0.00 | 0.00 | 0.00 | 65 | 1014.1 |
| 20260503223519 | 12 | 270 | 12.9 | 27.4 | 0.00 | 0.00 | 0.00 | 63 | 1014.1 |
| 20260503222558 | 12 | 270 | 9.7 | 20.9 | 0.00 | 0.00 | 0.00 | 64 | 1014.2 |
| 20260503221519 | 12 | 270 | 14.5 | 30.6 | 0.00 | 0.00 | 0.00 | 62 | 1014.2 |
| 20260503220558 | 13 | 270 | 17.7 | 37.0 | 0.00 | 0.00 | 0.00 | 60 | 1014.2 |
| 20260503215518 | 13 | 270 | 19.3 | 41.8 | 0.00 | 0.00 | 0.00 | 57 | 1014.0 |
| 20260503214518 | 15 | 270 | 14.5 | 41.8 | 0.00 | 0.00 | 0.00 | 44 | 1013.8 |
| 20260503213518 | 15 | 270 | 11.3 | 30.6 | 0.00 | 0.00 | 0.00 | 43 | 1013.9 |
| 20260503212559 | 16 | 248 | 12.9 | 29.0 | 0.00 | 0.00 | 0.00 | 42 | 1013.8 |
| 20260503211519 | 16 | 225 | 11.3 | 24.1 | 0.00 | 0.00 | 0.00 | 41 | 1013.9 |
| 20260503210518 | 16 | 270 | 16.1 | 32.2 | 0.00 | 0.00 | 0.00 | 41 | 1014.1 |
| 20260503205538 | 16 | 270 | 14.5 | 30.6 | 0.00 | 0.00 | 0.00 | 42 | 1014.1 |
| 20260503204518 | 16 | 225 | 12.9 | 29.0 | 0.00 | 0.00 | 0.00 | 41 | 1014.2 |
| 20260503203518 | 15 | 225 | 14.5 | 33.8 | 0.00 | 0.00 | 0.00 | 42 | 1014.3 |
| 20260503202518 | 16 | 293 | 11.3 | 32.2 | 0.00 | 0.00 | 0.00 | 41 | 1014.4 |
| 20260503201518 | 16 | 270 | 11.3 | 25.7 | 0.00 | 0.00 | 0.00 | 42 | 1014.4 |
| 20260503200538 | 16 | 225 | 8.0 | 19.3 | 0.00 | 0.00 | 0.00 | 42 | 1014.6 |
| 20260503195558 | 16 | 225 | 12.9 | 30.6 | 0.00 | 0.00 | 0.00 | 40 | 1014.7 |
| 20260503194539 | 16 | 293 | 11.3 | 33.8 | 0.00 | 0.00 | 0.00 | 40 | 1014.9 |
| 20260503193519 | 16 | 270 | 11.3 | 29.0 | 0.00 | 0.00 | 0.00 | 41 | 1015.0 |
| 20260503192518 | 16 | 270 | 9.7 | 24.1 | 0.00 | 0.00 | 0.00 | 42 | 1015.2 |
| 20260503191518 | 17 | 248 | 11.3 | 30.6 | 0.00 | 0.00 | 0.00 | 41 | 1015.3 |
| 20260503190518 | 16 | 203 | 16.1 | 37.0 | 0.00 | 0.00 | 0.00 | 40 | 1015.5 |
| 20260503185518 | 16 | 225 | 16.1 | 32.2 | 0.00 | 0.00 | 0.00 | 39 | 1015.7 |
| 20260503184520 | 16 | 225 | 14.5 | 41.8 | 0.00 | 0.00 | 0.00 | 41 | 1015.8 |
| 20260503183518 | 17 | 248 | 11.3 | 30.6 | 0.00 | 0.00 | 0.00 | 40 | 1016.0 |
| 20260503182518 | 16 | 270 | 14.5 | 32.2 | 0.00 | 0.00 | 0.00 | 38 | 1016.0 |
| 20260503181518 | 16 | 270 | 12.9 | 30.6 | 0.00 | 0.00 | 0.00 | 41 | 1016.1 |
| 20260503180518 | 16 | 270 | 11.3 | 24.1 | 0.00 | 0.00 | 0.00 | 43 | 1016.2 |
| 20260503175518 | 16 | 293 | 11.3 | 29.0 | 0.00 | 0.00 | 0.00 | 42 | 1016.4 |
| 20260503174518 | 17 | 270 | 9.7 | 22.5 | 0.00 | 0.00 | 0.00 | 41 | 1016.6 |
| 20260503173540 | 16 | 270 | 16.1 | 38.6 | 0.00 | 0.00 | 0.00 | 39 | 1016.6 |
| 20260503172518 | 16 | 270 | 12.9 | 27.4 | 0.00 | 0.00 | 0.00 | 41 | 1016.7 |
| 20260503171520 | 16 | 270 | 11.3 | 32.2 | 0.00 | 0.00 | 0.00 | 42 | 1016.9 |
| 20260503170518 | 16 | 270 | 11.3 | 29.0 | 0.00 | 0.00 | 0.00 | 42 | 1017.0 |